Regional Weather Roundup
Issued by NWS Kansas City/Pleasant Hill, MO

Home | Current Version | Previous Version | Text Only | Print | Product List | Glossary On
Versions: 1 2 3 4 5 6 7 8 9 10 11 12 13 14 15 16 17 18 19 20 21 22 23 24 25 26 27 28 29 30 31 32 33 34 35 36 37 38 39 40 41 42 43 44 45 46 47 48 49 50
000
ASUS43 KEAX 210311
RWREAX

WEATHER ROUNDUP FOR EASTERN KANSAS AND NORTHWEST MISSOURI
NATIONAL WEATHER SERVICE KANSAS CITY/PLEASANT HILL MO
1000 PM CDT SAT SEP 20 2014

KSZ040-057-103>105-MOZ028-029-037-043-210400-
...KANSAS CITY METROPOLITAN AREA...

CITY           SKY/WX    TMP DP  RH WIND       PRES   REMARKS
K.C. INTL      CLEAR     71  68  90 W6        29.98R
K.C. DOWNTOWN  CLOUDY    76  70  82 CALM      29.97R
LEES SUMMIT    CLOUDY    74  70  87 CALM      29.99R
OLATHE - IXD   PTCLDY    72  69  90 NW5       29.99R
OLATHE - OJC   CLEAR     74  69  85 NW3       29.98R
LAWRENCE       CLEAR     66  64  93 N7        29.99R FOG

$$

MOZ001>008-011>017-020>025-030>033-038>040-044>046-053-054-210400-
...NORTHERN AND CENTRAL MISSOURI...

CITY           SKY/WX    TMP DP  RH WIND       PRES   REMARKS
ST. JOSEPH     CLEAR     68  66  93 CALM      29.97R
MOSBY          CLEAR     72  70  94 CALM      29.97R
WHITEMAN AFB   CLEAR     74  70  89 SW7       29.96R
CLINTON        PTCLDY    73  72  94 SW3       29.97S
SEDALIA        PTCLDY    74  70  87 SW8       29.96S FOG
WARSAW         NOT AVBL
MARSHALL       MOCLDY    75  73  94 W6        29.96R
CHILLICOTHE      N/A     75  70  84 VRB3      29.95R
MOBERLY        CLEAR     75  68  78 SW8       29.93S
KIRKSVILLE     CLEAR     72  70  93 W5        29.92S

$$

MOZ041-047>049-056>058-063>065-088>090-097-210400-
...EASTERN AND SOUTHERN MISSOURI...

CITY           SKY/WX    TMP DP  RH WIND       PRES   REMARKS
ST. LOUIS INTL CLEAR     78  67  68 SW7       29.93S
SPIRIT OF STL  CLEAR     69  66  90 W3        29.92S
COLUMBIA       PTCLDY    73  70  90 SW8       29.95S
JEFFERSON CITY CLEAR     72  69  90 CALM      29.94S
MEXICO         CLEAR    N/A N/A N/A SW8       29.92F
HANNIBAL       LGT RAIN  75  70  83 W8        29.91R
ROLLA          CLEAR     70  67  90 SW7       29.97S
LEBANON        PTCLDY    73  68  83 CALM      30.01R
OSAGE BEACH    CLEAR     72  68  88 CALM      29.98R
SPRINGFIELD    MOCLDY    72  68  87 SW7       30.00S
BRANSON        PTCLDY    72  66  83 CALM      30.04S
NEVADA         CLOUDY    73  70  88 SW6       29.99R
JOPLIN         CLOUDY    76  69  79 S7        30.00S
WEST PLAINS    CLEAR     74  67  78 SW6       30.04R

$$

IAZ060-094-KSZ022-034>040-054-083-096-NEZ052-066-093-210400-
...KANSAS...SOUTHEAST NEBRASKA AND IOWA...

CITY           SKY/WX    TMP DP  RH WIND       PRES   REMARKS
TOPEKA         CLEAR     69  68  96 S3        29.99R FOG
MANHATTAN      CLEAR     69  67  93 W3        30.01R
EMPORIA        CLOUDY    70  66  87 SW5       30.00R
CHANUTE        CLOUDY    77  70  79 S6        30.00R
WICHITA        MOCLDY    74  69  85 W10       29.98F
OMAHA          PTCLDY    73  54  51 NW14      29.99R
LINCOLN        CLEAR     71  56  58 N6        30.03R
FALLS CITY     CLEAR     71  69  93 W8        29.98R
LAMONI           N/A     67  62  84 W9        29.94R
DES MOINES     PTCLDY    71  58  63 W9        29.88R

$$



USA.gov is the U.S. government's official web portal to all federal, state and local government web resources and services.